STARLINK-1210, 45207

Orbit data source: Space-Track

STARLINK-1210, 45207 is a payload satellite owned by SpaceX/Seattle (US) in LEO that was launched on Mon, 17 Feb 2020 UTC via an FALCON 9 launch vehicle from the Air Force Eastern Test Range (AFETR). Payload-class satellites include a variety of spacecraft equipped with specific instruments for various scientific and technological missions. These include communications satellites like Starlink; space stations such as the ISS; scientific satellites like the Hubble; Earth observation satellites from companies like Planet Labs, Umbra, and HawkEye 360; GPS; miniature CubeSats for education and research; and military/defense satellites.

Loading next visibility...
Identifier
45207, 2020-012AF
Orbit
LEO
Country
Flag of USUS
Related business
Manufacturer
SpaceX/Seattle
Mission
Partially operational Commercial Communications
Bus & Motor
STARLINK, Unknown motor
Mass
260 kg wet, ~248 kg dry
Launch date (UTC)
2020-02-17 (6 years ago)
Launch vehicle
FALCON 9
Launch site
Air Force Eastern Test Range (AFETR)
Object type
Payload
Rocket body
Debris
Shape & HBR
Box + 1 Pan, 4.4 m
Radar Cross Section
13.562 m², Large (>1 m²)

Expand to show TLE details & history
Last TLE update: 18 hours ago

TLE from 18 hours ago
0 STARLINK-1210
1 45207U 20012AF  25257.58570242  .00126950  00000-0  25770-2 0  9993
2 45207  53.0297  51.9002 0010298 224.7302 135.2874 15.45387545309215
Epoch: 2025-09-14T14:03Z
TLE epoch observation values (Epoch: 2025-09-14T14:03:24.689Z)
Latitude
Longitude
-152.75526°
Altitude
436.117 km
Speed
7.649 km/s
True Right ascension
03h 27m 36s
True Declination
0° 00' 00"
Sunlit
Object was in full shadow at epoch
Visualization orbit readout
Latitude
Unknown
Longitude
Unknown
Altitude
Unknown
Speed
Unknown
Apparent Right ascension
Unknown
Apparent Declination
Unknown
Sunlit
N/A
Visualization observer readout
Local Sidereal Time
00:49:46
Azimuth
Unknown
Elevation
Unknown
Doppler factor
Unknown
Orbital elements
Apogee altitude
437.53 km
Perigee altitude
423.507 km
Semi-major axis
6,808.656 km
Eccentricity
0.00103
Inclination
53.0297°
RAAN
51.9002°
Arg. of periapsis
224.7302°
True anomaly
135.37035°
Mean anomaly
135.2874°
Eccentric anomaly
135.32888°
Mean motion
3.86323 °/min
Orbital period
93.19 mins
BSTAR
0.002577
Loading maneuver chart data...
Computing Atmospheric mass density...

Documentation

Showing up to 5 results
|